Tracking 19817 objects as of 17-Aug-2019
HD Live streaming from Space Station
objects crossing your sky now

COSMOS 2388


COSMOS 2388 is no longer on orbit


NORAD ID: 27409
Int'l Code: 2002-017A
Perigee: N/A
Apogee: N/A
Inclination: N/A
Period: N/A
Semi major axis: N/A
RCS: N/A
Launch date: April 1, 2002
Source: Commonwealth of Independent States (former USSR) (CIS)
Launch site: PLESETSK MISSILE AND SPACE COMPLEX (PKMTR)
Decay date: 2011-09-14

Normally part of a larger constellation.
aabbcc
Your satellite tracking list
Your tracking list is empty




NASA's NSSDC Master Catalog

Two Line Element Set (TLE):
1 27409U 02017A   11257.27615002  .99999999  63741-5  23887-3 0  9990
2 27409 064.7635 358.9059 0194405 241.3088 215.6760 16.32350172 71020
Source of the keplerian elements: AFSPC